STARLINK-11627, 63107

Orbit data source: Space-Track

STARLINK-11627, 63107 is a payload satellite owned by SpaceX/Seattle (US) in LEO that was launched on Thu, 27 Feb 2025 UTC via an FALCON 9 launch vehicle from the Air Force Eastern Test Range (AFETR). Payload-class satellites include a variety of spacecraft equipped with specific instruments for various scientific and technological missions. These include communications satellites like Starlink; space stations such as the ISS; scientific satellites like the Hubble; Earth observation satellites from companies like Planet Labs, Umbra, and HawkEye 360; GPS; miniature CubeSats for education and research; and military/defense satellites.

Loading next visibility...
Identifier
63107, 2025-039D
Orbit
LEO
Country
Flag of USUS
Related business
Manufacturer
SpaceX/Seattle
Mission
Operational Commercial Communications
Bus & Motor
STARLINK V2MD, Unknown motor
Mass
960 kg wet, ~910 kg dry
Launch date (UTC)
2025-02-27 (8 months ago)
Launch vehicle
FALCON 9
Launch site
Air Force Eastern Test Range (AFETR)
Object type
Payload
Rocket body
Debris
Shape & HBR
Box + 2 Pan, 18.1 m
Radar Cross Section
36.964 m², Large (>1 m²)

Expand to show TLE details & history
Last TLE update: 22 hours ago

TLE from 22 hours ago
0 STARLINK-11627
1 63107U 25039D   25306.50002315 -.00084026  00000-0 -65668-3 0  9994
2 63107  42.9999 283.4252 0001559 273.6645  53.3590 15.70885687  5971
Epoch: 2025-11-02T12:00Z
TLE epoch observation values (Epoch: 2025-11-02T12:00:02.000Z)
Latitude
-21.94495°
Longitude
35.95707°
Altitude
360.804 km
Speed
7.694 km/s
True Right ascension
17h 11m 55s
True Declination
-21° 49' 08"
Sunlit
Object was in daylight at epoch
Visualization orbit readout
Latitude
Unknown
Longitude
Unknown
Altitude
Unknown
Speed
Unknown
Apparent Right ascension
Unknown
Apparent Declination
Unknown
Sunlit
N/A
Visualization observer readout
Local Sidereal Time
06:01:58
Azimuth
Unknown
Elevation
Unknown
Doppler factor
Unknown
Orbital elements
Apogee altitude
359.396 km
Perigee altitude
357.296 km
Semi-major axis
6,736.483 km
Eccentricity
0.00016
Inclination
42.9999°
RAAN
283.4252°
Arg. of periapsis
273.6645°
True anomaly
53.37334°
Mean anomaly
53.359°
Eccentric anomaly
53.36617°
Mean motion
3.92549 °/min
Orbital period
91.71 mins
BSTAR
-0.00065668
Loading maneuver chart data...
Computing Atmospheric mass density...
Loading historical data...
Loading historical data...
Loading historical data...
Loading historical data...
Loading historical data...
Loading historical data...
Loading historical data...

Documentation

Showing up to 5 results
|